Weather History for KMNE - December, 2012

Change the Weather History Date:

Monday, December 31, 2012

  Actual Average (KBAD) Record (KBAD)
Temperature  
Mean Temperature 46 °F -  
Max Temperature 54 °F 55 °F 77 °F (2010)
Min Temperature 39 °F 36 °F 28 °F (2003)
Degree Days  
Heating Degree Days 18    
Moisture  
Dew Point 40 °F    
Average Humidity 76    
Maximum Humidity 94    
Minimum Humidity 56    
Precipitation  
Precipitation 1.01 in - - ()
Sea Level Pressure  
Sea Level Pressure 30.13 in    
Wind  
Wind Speed 5 mph (SE)    
Max Wind Speed 10 mph    
Max Gust Speed 17 mph    
Visibility 9 miles    
Events Rain    
Averages and records for this station are not official NWS values.
T = Trace of Precipitation, MM = Missing Value Source: NWS Daily Summary

Daily Weather History Graph

Daily Weather History Graph

Search for Another Location

Airport or City:

Trip Planner

Search our weather history database for the weather conditions in past years. The results will help you decide how hot, cold, wet, or windy it might be!

Date:

Astronomy

Dec. 31, 2012 Rise Set
Actual Time 7:15 AM CST 5:17 PM CST
Civil Twilight 6:48 AM CST 5:45 PM CST
Nautical Twilight 6:17 AM CST 6:15 PM CST
Astronomical Twilight 5:47 AM CST 6:45 PM CST
Moon 8:37 PM CST (12/31) 9:07 AM CST (12/31)
Length of Visible Light 10h 57m
Length of Day
10h 02m
Waning Gibbous, 90% of the Moon is Illuminated
Dec 31
Waning Gibbous
Jan 4
Last Quarter
Jan 11
New
Jan 18
First Quarter
Jan 26
Full

Hourly Weather History & Observations

Time (CST) Temp. Windchill Dew Point Humidity Pressure Visibility Wind Dir Wind Speed Gust Speed Precip Events Conditions
12:15 AM 39.7 °F 37.6 °F 29.3 °F 66% 30.32 in 10.0 mi SE 3.5 mph - N/A   Clear
12:35 AM 39.2 °F 35.9 °F 29.5 °F 68% 30.31 in 10.0 mi SE 4.6 mph - N/A   Clear
12:55 AM 39.2 °F 35.9 °F 29.8 °F 69% 30.29 in 10.0 mi SE 4.6 mph - N/A   Clear
1:15 AM 39.4 °F 37.2 °F 29.8 °F 69% 30.30 in 10.0 mi SSE 3.5 mph - N/A   Clear
1:35 AM 39.7 °F 37.6 °F 30.2 °F 69% 30.31 in 10.0 mi SE 3.5 mph - N/A   Mostly Cloudy
1:55 AM 40.1 °F 38.0 °F 30.4 °F 68% 30.31 in 10.0 mi SE 3.5 mph - N/A   Overcast
2:15 AM 40.3 °F 37.1 °F 30.4 °F 68% 30.29 in 10.0 mi ESE 4.6 mph - N/A   Overcast
2:35 AM 40.5 °F 37.3 °F 30.6 °F 68% 30.28 in 10.0 mi ESE 4.6 mph - N/A   Overcast
2:55 AM 41.0 °F 39.0 °F 30.6 °F 66% 30.29 in 10.0 mi SE 3.5 mph - N/A   Overcast
3:15 AM 41.0 °F 38.0 °F 30.4 °F 66% 30.28 in 10.0 mi ESE 4.6 mph - N/A   Overcast
3:35 AM 41.0 °F 39.0 °F 30.4 °F 66% 30.27 in 10.0 mi ESE 3.5 mph - N/A   Overcast
3:55 AM 41.0 °F 36.4 °F 30.2 °F 65% 30.27 in 10.0 mi SE 6.9 mph - N/A   Overcast
4:15 AM 41.2 °F 38.2 °F 30.2 °F 65% 30.26 in 10.0 mi SE 4.6 mph - N/A   Overcast
4:35 AM 41.4 °F 38.4 °F 30.0 °F 64% 30.25 in 10.0 mi ESE 4.6 mph - N/A   Overcast
4:55 AM 41.4 °F 37.6 °F 29.8 °F 64% 30.24 in 10.0 mi ESE 5.8 mph - N/A   Overcast
5:15 AM 41.9 °F 39.0 °F 29.5 °F 61% 30.24 in 10.0 mi SE 4.6 mph - N/A   Overcast
5:35 AM 41.9 °F 38.2 °F 29.7 °F 62% 30.24 in 10.0 mi ESE 5.8 mph - N/A   Overcast
5:55 AM 42.1 °F 37.7 °F 30.0 °F 62% 30.24 in 10.0 mi ESE 6.9 mph - N/A   Overcast
6:15 AM 42.8 °F 38.0 °F 29.7 °F 60% 30.22 in 10.0 mi SE 8.1 mph - N/A   Overcast
6:35 AM 43.7 °F 39.1 °F 28.9 °F 56% 30.22 in 10.0 mi SE 8.1 mph - N/A   Overcast
6:55 AM 43.7 °F 39.1 °F 29.3 °F 57% 30.22 in 10.0 mi ESE 8.1 mph - N/A   Overcast
7:15 AM 44.1 °F 40.1 °F 29.3 °F 56% 30.21 in 10.0 mi SE 6.9 mph - N/A   Overcast
7:35 AM 44.2 °F 39.7 °F 29.8 °F 57% 30.20 in 10.0 mi SE 8.1 mph - N/A   Overcast
7:55 AM 44.6 °F 40.2 °F 30.6 °F 58% 30.20 in 10.0 mi SE 8.1 mph - N/A   Overcast
8:15 AM 44.8 °F 40.4 °F 31.6 °F 60% 30.20 in 10.0 mi SE 8.1 mph - N/A   Overcast
8:35 AM 45.0 °F 40.1 °F 32.4 °F 61% 30.20 in 10.0 mi SE 9.2 mph - N/A   Light Drizzle
8:55 AM 45.5 °F 41.3 °F 33.3 °F 62% 30.20 in 10.0 mi SE 8.1 mph - N/A   Overcast
9:15 AM 46.0 °F 41.4 °F 34.7 °F 65% 30.20 in 10.0 mi SE 9.2 mph - N/A   Overcast
9:35 AM 46.2 °F 41.7 °F 36.0 °F 67% 30.19 in 10.0 mi SE 9.2 mph - N/A   Overcast
9:55 AM 46.4 °F 42.4 °F 37.0 °F 70% 30.18 in 10.0 mi SE 8.1 mph - N/A   Overcast
10:15 AM 46.9 °F - 37.6 °F 70% 30.18 in 10.0 mi SE 5.8 mph - N/A   Overcast
10:35 AM 47.7 °F - 38.3 °F 70% 30.17 in 10.0 mi SE 6.9 mph - N/A   Overcast
11:15 AM 49.3 °F - 39.9 °F 70% 30.15 in 10.0 mi SE 9.2 mph - N/A   Overcast
11:35 AM 50.2 °F - 41.0 °F 71% 30.15 in 10.0 mi SSE 5.8 mph 17.3 mph N/A   Overcast
11:55 AM 51.1 °F - 42.3 °F 72% 30.12 in 10.0 mi SE 8.1 mph - N/A   Overcast
12:15 PM 50.9 °F - 42.8 °F 74% 30.12 in 10.0 mi SSE 5.8 mph - N/A   Overcast
12:35 PM 50.9 °F - 43.7 °F 76% 30.09 in 10.0 mi SE 8.1 mph - N/A   Overcast
12:55 PM 51.8 °F - 43.7 °F 74% 30.07 in 10.0 mi SE 6.9 mph - N/A   Overcast
1:15 PM 52.7 °F - 44.2 °F 73% 30.06 in 10.0 mi SSE 6.9 mph - N/A   Overcast
1:35 PM 53.4 °F - 45.1 °F 74% 30.05 in 10.0 mi SSE 5.8 mph - N/A   Overcast
1:55 PM 53.4 °F - 45.5 °F 75% 30.04 in 10.0 mi SSE 8.1 mph - N/A   Overcast
2:15 PM 52.9 °F - 46.2 °F 78% 30.04 in 10.0 mi SE 6.9 mph - N/A Rain Light Rain
2:35 PM 52.9 °F - 46.9 °F 80% 30.02 in 10.0 mi SE 8.1 mph - N/A Rain Light Rain
2:55 PM 52.7 °F - 48.2 °F 85% 30.02 in 7.0 mi SE 5.8 mph - N/A Rain Rain
3:15 PM 52.7 °F - 48.9 °F 87% 30.02 in 10.0 mi SE 5.8 mph - N/A   Overcast
3:35 PM 53.2 °F - 49.8 °F 88% 30.01 in 10.0 mi SE 8.1 mph - 0.01 in Rain Light Rain
3:55 PM 53.2 °F - 50.0 °F 89% 30.00 in 7.0 mi SE 10.4 mph - 0.02 in Rain Light Rain
4:15 PM 53.2 °F - 50.0 °F 89% 30.00 in 10.0 mi SE 9.2 mph 16.1 mph N/A   Overcast
4:35 PM 53.6 °F - 50.5 °F 89% 29.99 in 10.0 mi SE 6.9 mph - N/A Rain Light Rain
4:55 PM 54.1 °F - 51.1 °F 89% 29.98 in 10.0 mi SSE 9.2 mph - N/A Rain Light Rain
5:15 PM 54.5 °F - 51.3 °F 89% 29.98 in 10.0 mi SSE 8.1 mph - N/A   Light Drizzle
5:35 PM 54.7 °F - 51.3 °F 88% 29.98 in 10.0 mi SSE 6.9 mph - N/A   Light Drizzle
6:15 PM 54.3 °F - 51.4 °F 90% 30.01 in 7.0 mi WNW 9.2 mph - 0.02 in Rain Rain
6:35 PM 53.8 °F - 51.3 °F 91% 30.02 in 5.0 mi NW 6.9 mph - 0.03 in Rain Rain
6:55 PM 53.4 °F - 51.1 °F 92% 30.02 in 4.0 mi NW 3.5 mph - 0.13 in Rain Rain
7:15 PM 53.2 °F - 51.1 °F 92% 30.02 in 3.0 mi NNW 3.5 mph - 0.07 in Rain Rain
7:35 PM 52.9 °F - 50.9 °F 93% 30.00 in 5.0 mi Calm Calm - 0.11 in Rain Rain
7:55 PM 52.7 °F - 50.7 °F 93% 30.01 in 3.0 mi NNW 4.6 mph - 0.21 in Rain Heavy Rain
8:15 PM 52.7 °F - 50.7 °F 93% 30.01 in 4.0 mi NNW 4.6 mph - 0.07 in Rain Rain
8:35 PM 52.7 °F - 50.5 °F 92% 30.01 in 7.0 mi Calm Calm - 0.10 in Rain Rain
9:15 PM 52.3 °F - 50.4 °F 93% 30.02 in 4.0 mi NNW 4.6 mph - 0.08 in Rain Rain
9:35 PM 52.0 °F - 50.0 °F 93% 30.02 in 7.0 mi North 5.8 mph - 0.12 in Rain Rain
9:55 PM 51.8 °F - 50.0 °F 94% 30.03 in 3.0 mi Calm Calm - 0.22 in Rain Rain
10:15 PM 52.0 °F - 50.0 °F 93% 30.02 in 7.0 mi East 4.6 mph - 0.05 in Rain Rain
10:35 PM 52.2 °F - 50.4 °F 94% 30.02 in 4.0 mi Calm Calm - 0.12 in Rain Rain
10:55 PM 52.3 °F - 50.5 °F 94% 30.02 in 3.0 mi ESE 3.5 mph - 0.20 in Rain Rain
11:15 PM 52.2 °F - 50.4 °F 94% 30.02 in 3.0 mi Calm Calm - 0.07 in Rain Heavy Rain
11:35 PM 52.2 °F - 50.4 °F 94% 30.02 in 4.0 mi Calm Calm - 0.13 in Rain Rain